TimeCST,TemperatureF,Dew PointF,Humidity,Sea Level PressureIn,VisibilityMPH,Wind Direction,Wind SpeedMPH,Gust SpeedMPH,PrecipitationIn,Events,Conditions,WindDirDegrees,DateUTC
12:15 AM,51.8,37.4,58,30.32,10.0,NNE,12.7,18.4,N/A,,Clear,20,2013-11-24 06:15:00
12:35 AM,51.8,35.6,54,30.32,10.0,North,10.4,21.9,N/A,,Mostly Cloudy,10,2013-11-24 06:35:00
12:55 AM,50.0,35.6,58,30.31,10.0,North,11.5,21.9,N/A,,Scattered Clouds,10,2013-11-24 06:55:00
1:15 AM,50.0,35.6,58,30.32,10.0,North,11.5,21.9,N/A,,Partly Cloudy,10,2013-11-24 07:15:00
1:35 AM,50.0,35.6,58,30.32,10.0,NNE,13.8,23.0,N/A,,Clear,20,2013-11-24 07:35:00
1:55 AM,50.0,35.6,58,30.32,10.0,NNE,11.5,20.7,N/A,,Clear,20,2013-11-24 07:55:00
2:15 AM,48.2,33.8,58,30.31,10.0,North,10.4,20.7,N/A,,Clear,10,2013-11-24 08:15:00
2:35 AM,48.2,33.8,58,30.31,10.0,North,13.8,20.7,N/A,,Clear,10,2013-11-24 08:35:00
2:55 AM,48.2,33.8,58,30.31,10.0,NNE,9.2,18.4,N/A,,Clear,20,2013-11-24 08:55:00
3:15 AM,48.2,33.8,58,30.31,10.0,North,11.5,19.6,N/A,,Clear,10,2013-11-24 09:15:00
3:35 AM,48.2,33.8,58,30.31,10.0,NNE,12.7,18.4,N/A,,Clear,20,2013-11-24 09:35:00
3:55 AM,48.2,33.8,58,30.30,10.0,NNE,15.0,19.6,N/A,,Clear,20,2013-11-24 09:55:00
4:15 AM,48.2,32.0,54,30.30,10.0,NNE,9.2,19.6,N/A,,Clear,20,2013-11-24 10:15:00
4:35 AM,48.2,30.2,50,30.31,10.0,North,10.4,19.6,N/A,,Clear,10,2013-11-24 10:35:00
4:55 AM,46.4,30.2,53,30.31,10.0,North,11.5,18.4,N/A,,Clear,10,2013-11-24 10:55:00
5:15 AM,46.4,30.2,53,30.33,10.0,North,9.2,20.7,N/A,,Clear,10,2013-11-24 11:15:00
5:35 AM,46.4,28.4,50,30.34,10.0,North,11.5,20.7,N/A,,Clear,10,2013-11-24 11:35:00
5:55 AM,46.4,28.4,50,30.35,10.0,North,12.7,21.9,N/A,,Clear,10,2013-11-24 11:55:00
6:15 AM,46.4,28.4,50,30.35,10.0,North,11.5,18.4,N/A,,Clear,10,2013-11-24 12:15:00
6:35 AM,44.6,28.4,53,30.34,10.0,NNE,10.4,21.9,N/A,,Clear,20,2013-11-24 12:35:00
6:55 AM,44.6,26.6,49,30.34,10.0,NNE,10.4,20.7,N/A,,Clear,20,2013-11-24 12:55:00
7:15 AM,44.6,26.6,49,30.34,10.0,NNE,9.2,17.3,N/A,,Clear,20,2013-11-24 13:15:00
7:35 AM,44.6,26.6,49,30.35,10.0,NNE,4.6,23.0,N/A,,Clear,20,2013-11-24 13:35:00
7:55 AM,44.6,24.8,46,30.36,10.0,North,13.8,21.9,N/A,,Clear,10,2013-11-24 13:55:00
8:15 AM,44.6,24.8,46,30.36,10.0,North,10.4,21.9,N/A,,Clear,10,2013-11-24 14:15:00
8:35 AM,44.6,24.8,46,30.37,10.0,NNE,8.1,23.0,N/A,,Clear,20,2013-11-24 14:35:00
8:55 AM,44.6,24.8,46,30.38,10.0,NNE,15.0,23.0,N/A,,Clear,20,2013-11-24 14:55:00
9:15 AM,44.6,24.8,46,30.38,10.0,North,8.1,21.9,N/A,,Clear,10,2013-11-24 15:15:00
9:35 AM,44.6,24.8,46,30.38,10.0,North,9.2,18.4,N/A,,Clear,10,2013-11-24 15:35:00
9:55 AM,46.4,24.8,43,30.37,10.0,NNE,16.1,24.2,N/A,,Clear,20,2013-11-24 15:55:00
10:15 AM,46.4,24.8,43,30.37,10.0,North,9.2,18.4,N/A,,Clear,350,2013-11-24 16:15:00
10:35 AM,46.4,24.8,43,30.37,10.0,North,11.5,23.0,N/A,,Clear,10,2013-11-24 16:35:00
10:55 AM,48.2,26.6,43,30.37,10.0,NNE,10.4,20.7,N/A,,Clear,30,2013-11-24 16:55:00
11:15 AM,48.2,24.8,40,30.37,9.0,NNE,10.4,18.4,N/A,,Clear,20,2013-11-24 17:15:00
11:35 AM,50.0,24.8,37,30.36,10.0,North,11.5,19.6,N/A,,Clear,10,2013-11-24 17:35:00
11:55 AM,50.0,24.8,37,30.35,10.0,North,11.5,18.4,N/A,,Clear,10,2013-11-24 17:55:00
12:15 PM,51.8,24.8,35,30.34,10.0,NNE,11.5,18.4,N/A,,Clear,20,2013-11-24 18:15:00
12:35 PM,51.8,24.8,35,30.33,10.0,NNE,11.5,18.4,N/A,,Clear,20,2013-11-24 18:35:00
12:55 PM,51.8,26.6,38,30.31,10.0,NNE,10.4,16.1,N/A,,Clear,20,2013-11-24 18:55:00
1:15 PM,51.8,24.8,35,30.30,10.0,NNE,11.5,19.6,N/A,,Clear,20,2013-11-24 19:15:00
1:35 PM,53.6,24.8,33,30.29,10.0,North,9.2,-,N/A,,Clear,10,2013-11-24 19:35:00
1:55 PM,53.6,24.8,33,30.29,10.0,NNE,10.4,-,N/A,,Clear,30,2013-11-24 19:55:00
2:15 PM,53.6,24.8,33,30.29,10.0,NNE,15.0,20.7,N/A,,Clear,30,2013-11-24 20:15:00
2:35 PM,53.6,24.8,33,30.28,10.0,NE,11.5,17.3,N/A,,Clear,40,2013-11-24 20:35:00
2:55 PM,53.6,24.8,33,30.28,10.0,NNE,11.5,17.3,N/A,,Clear,20,2013-11-24 20:55:00
3:15 PM,53.6,24.8,33,30.29,10.0,North,9.2,16.1,N/A,,Clear,10,2013-11-24 21:15:00
3:35 PM,53.6,24.8,33,30.28,10.0,NNE,8.1,18.4,N/A,,Clear,30,2013-11-24 21:35:00
3:55 PM,53.6,24.8,33,30.29,10.0,NNE,9.2,16.1,N/A,,Clear,30,2013-11-24 21:55:00
4:15 PM,53.6,24.8,33,30.29,10.0,NNE,9.2,-,N/A,,Clear,20,2013-11-24 22:15:00
4:35 PM,53.6,24.8,33,30.30,10.0,North,6.9,-,N/A,,Clear,10,2013-11-24 22:35:00
4:55 PM,53.6,26.6,35,30.30,10.0,North,6.9,-,N/A,,Clear,360,2013-11-24 22:55:00
5:15 PM,53.6,26.6,35,30.31,10.0,NNE,6.9,-,N/A,,Clear,20,2013-11-24 23:15:00
5:35 PM,51.8,26.6,38,30.31,10.0,North,8.1,-,N/A,,Clear,10,2013-11-24 23:35:00
5:55 PM,51.8,26.6,38,30.31,10.0,NNE,5.8,-,N/A,,Clear,20,2013-11-24 23:55:00
6:15 PM,51.8,24.8,35,30.31,10.0,NE,8.1,-,N/A,,Clear,40,2013-11-25 00:15:00
6:35 PM,51.8,24.8,35,30.31,10.0,NNE,8.1,-,N/A,,Clear,30,2013-11-25 00:35:00
6:55 PM,51.8,24.8,35,30.33,10.0,NNE,9.2,-,N/A,,Clear,20,2013-11-25 00:55:00
7:15 PM,51.8,24.8,35,30.33,10.0,NNE,8.1,-,N/A,,Clear,20,2013-11-25 01:15:00
7:35 PM,50.0,24.8,37,30.33,10.0,NNE,10.4,16.1,N/A,,Clear,20,2013-11-25 01:35:00
7:55 PM,50.0,24.8,37,30.33,10.0,NE,5.8,16.1,N/A,,Clear,40,2013-11-25 01:55:00
8:15 PM,48.2,24.8,40,30.33,10.0,NNE,6.9,-,N/A,,Clear,30,2013-11-25 02:15:00
8:35 PM,48.2,26.6,43,30.34,10.0,NNE,5.8,-,N/A,,Clear,20,2013-11-25 02:35:00
8:55 PM,48.2,24.8,40,30.34,10.0,NNE,4.6,16.1,N/A,,Clear,30,2013-11-25 02:55:00
9:15 PM,48.2,24.8,40,30.34,10.0,NNE,6.9,-,N/A,,Clear,20,2013-11-25 03:15:00
9:35 PM,48.2,24.8,40,30.34,10.0,NNE,6.9,17.3,N/A,,Clear,30,2013-11-25 03:35:00
9:55 PM,48.2,24.8,40,30.34,10.0,North,5.8,-,N/A,,Clear,10,2013-11-25 03:55:00
10:15 PM,46.4,24.8,43,30.33,10.0,NNE,5.8,-,N/A,,Clear,30,2013-11-25 04:15:00
10:35 PM,46.4,24.8,43,30.33,10.0,NNE,8.1,17.3,N/A,,Clear,20,2013-11-25 04:35:00
10:55 PM,46.4,24.8,43,30.33,10.0,NNE,6.9,-,N/A,,Clear,20,2013-11-25 04:55:00
11:15 PM,46.4,24.8,43,30.32,10.0,NNE,4.6,17.3,N/A,,Clear,30,2013-11-25 05:15:00
11:35 PM,46.4,24.8,43,30.31,10.0,NNE,5.8,-,N/A,,Clear,20,2013-11-25 05:35:00
11:55 PM,44.6,24.8,46,30.29,10.0,NE,8.1,-,N/A,,Clear,40,2013-11-25 05:55:00